[[{"header":{"parameterUnit":"m.s-1","parameterCategory":1,"la1":30.2991,"la2":30.254,"lo1":-89.0895,"lo2":-89.0444,"dy":0.0017,"dx":0.0017,"nx":28,"ny":28,"refTime":"2025-03-15T21:00:00:Z","depth":0,"parameterNumber":2,"parameterNumberName":"U-component_of_WINDS"},"data":[0,0,0,0,0,0,0,0,0,0,0,0,0,0,0,0,0,0,0,0,0,0,0,0,0,0,0,0,0,0,0,0,0,0,0,0,0,0,0,0,0,0,0,0,0,0,0,0,0,0,0,0,0,0,0,0,0,0,5.1786,5.1787,0,5.1941,5.1943,5.1945,5.1879,5.1875,5.1872,5.1868,5.203,5.2037,5.2045,0,0,0,0,0,0,0,0,0,0,0,0,0,5.1433,5.144,5.1786,5.1788,5.179,5.1941,5.1943,5.1945,5.188,5.1875,5.1871,5.1866,5.2027,5.2036,5.2046,0,0,0,0,0,0,0,0,0,0,0,0,0,5.1587,5.1442,5.1785,5.1775,5.1776,5.1941,5.1943,5.1946,5.1881,5.1875,5.1869,5.1864,5.2024,5.2035,5.2047,5.2232,0,0,5.2083,5.2088,0,0,0,0,0,0,0,0,5.1578,5.16,5.1775,5.1776,5.1777,5.1885,5.1878,5.2042,5.1882,5.1841,5.1868,5.1861,5.1986,5.2001,5.2042,5.224,5.2247,5.2084,5.2091,5.2096,5.2099,0,0,0,0,0,0,0,5.1568,5.1593,5.1847,5.1777,5.1779,5.1763,5.1779,5.1909,5.1943,5.1844,5.184,5.1859,5.1986,5.2031,5.2046,5.2249,5.2083,5.2094,5.2101,5.2106,5.2605,5.261,0,0,0,0,0,0,5.1557,5.1585,5.1842,5.1852,5.1662,5.1774,5.1791,5.1856,5.1942,5.1949,5.1863,5.1855,5.2014,5.2032,5.2051,5.2272,5.2096,5.2107,5.2114,5.2598,5.2606,5.2613,0,0,0,0,0,0,5.155,5.158,5.1836,5.1717,5.1749,5.1786,5.1859,5.1862,5.1907,5.1956,5.1962,5.1903,5.201,5.2035,5.2187,5.2277,5.2112,5.2123,5.2591,5.2601,5.2609,5.2716,0,0,0,0,0,0,5.154,5.1578,5.1649,5.1719,5.1755,5.1969,5.1865,5.1869,5.1927,5.1918,5.1995,5.2003,5.2008,5.217,5.2199,5.229,5.2132,5.2583,5.2595,5.2606,5.2705,5.2728,5.2748,0,0,0,0,0,5.1527,5.1673,5.1653,5.1684,5.1844,5.1975,5.1995,5.1997,5.1935,5.2006,5.2037,5.2,5.2263,5.2186,5.2218,5.2314,5.2577,5.2592,5.2605,5.2695,5.2724,5.2747,0,0,0,0,0,0,5.1613,5.1682,5.166,5.1833,5.1898,5.1963,5.2053,5.2027,5.2112,5.21,5.2099,5.2117,5.2275,5.231,5.2223,5.2497,5.2411,5.2432,5.2468,5.2495,5.2516,5.2504,5.2142,0,0,0,0,0,5.1652,5.1752,5.1807,5.1955,5.1989,5.2016,5.2073,5.2068,5.2136,5.2164,5.2206,5.2274,5.2371,5.2435,5.2528,5.271,5.2725,5.2792,5.2813,5.2831,5.2849,5.2946,5.2976,5.2659,5.2659,5.2658,0,0,5.1734,5.1784,5.1847,5.1973,5.2023,5.2127,5.2039,5.2153,5.2229,5.2181,5.2327,5.2361,5.2436,5.2604,5.268,5.2638,5.294,5.2849,5.2862,5.2871,5.2963,5.2993,5.302,5.2668,5.2666,5.2665,0,0,5.1935,5.1984,5.2111,5.2163,5.2239,5.2256,5.2287,5.2356,5.2376,5.2522,5.2487,5.2579,5.2748,5.2802,5.2852,5.3074,5.3043,5.3104,5.3216,5.3311,5.3336,5.3358,5.3436,5.3464,5.3122,5.3123,5.3123,0,5.2027,5.2181,5.218,5.2296,5.2352,5.2312,5.2441,5.2492,5.2595,5.2635,5.2587,5.2796,5.2844,5.3023,5.3077,5.312,5.3154,5.3095,5.3333,5.3355,5.3376,5.3449,5.3479,5.3129,5.3129,5.3128,5.3127,0,5.2289,5.2397,5.249,5.259,5.2657,5.2779,5.2797,5.2865,5.2855,5.2877,5.3026,5.3083,5.3185,5.3228,5.322,5.3406,5.3377,5.3332,5.3244,5.3413,5.3482,5.351,5.3139,5.3137,5.3135,5.3133,0,0,5.2548,5.2645,5.2679,5.2723,5.2805,5.2888,5.3008,5.3108,5.3165,5.3239,5.3339,5.3482,5.3439,5.3496,5.3494,5.3578,5.3748,5.3521,5.3523,5.356,5.3954,5.3987,5.402,5.3728,5.3734,5.3738,5.3947,0,5.2753,5.2963,5.2966,5.3159,5.3257,5.3221,5.3326,5.3387,5.3411,5.3499,5.3526,5.3626,5.3564,5.3597,5.3679,5.371,5.3827,5.3695,5.3821,5.3825,5.3801,5.4056,5.4091,5.4286,5.3975,5.3979,5.3983,0,5.3021,5.3101,5.3304,5.337,5.3412,5.3506,5.3596,5.3681,5.375,5.3761,5.3825,5.381,5.3932,5.3843,5.4011,5.3921,5.3973,5.3996,5.4004,5.4014,5.3913,5.4072,5.4349,5.4377,5.4026,5.4022,5.4019,0,5.3187,5.3346,5.3487,5.3526,5.3608,5.3674,5.3712,5.3775,5.3834,5.3914,5.3952,5.4046,5.4097,5.417,5.4181,5.4115,5.435,5.4261,5.4362,5.4361,5.4411,5.4407,5.4698,5.4448,5.4448,5.4447,5.4447,0,5.3415,5.354,5.3562,5.3649,5.3788,5.379,5.3928,5.3959,5.4016,5.4108,5.4084,5.4171,5.4181,5.4271,5.4281,5.4418,5.4442,5.4454,5.4454,5.4455,5.4453,5.4487,5.4473,5.4455,5.4453,5.4452,5.445,0,5.3623,5.3643,5.3794,5.3859,5.3878,5.3977,5.4033,5.4116,5.4137,5.4254,5.4282,5.4316,5.442,5.4439,5.4563,5.4569,5.4732,5.472,5.4708,5.4706,5.4805,5.4794,5.5126,5.5169,5.4893,5.4895,5.4898,0,5.3766,5.3861,5.3936,5.3995,5.4035,5.4132,5.4192,5.4199,5.4263,5.4348,5.4421,5.4522,5.4604,5.4773,5.4809,5.4903,5.4892,5.5002,5.4906,5.4903,5.4891,5.4884,5.4893,5.5019,5.5022,5.5025,5.5027,0,5.4018,5.4023,5.411,5.4201,5.4273,5.4346,5.4414,5.4465,5.448,5.4553,5.4659,5.4722,5.4848,5.4949,5.5043,5.5081,5.5057,5.5057,5.5085,5.5085,5.5073,5.5079,5.4756,5.5049,5.5047,5.5045,5.5044,5.5043,5.4196,5.4278,5.4343,5.4441,5.4493,5.4557,5.4638,5.4669,5.4758,5.486,5.4859,5.4975,5.5041,5.5164,5.5209,5.5299,5.5264,5.5305,5.5315,5.5325,5.5333,5.5061,5.5317,5.5316,5.5316,5.5315,5.5315,0,5.4444,5.4484,5.4574,5.467,5.4747,5.4718,5.4792,5.4858,5.496,5.5024,5.5105,5.5226,5.5324,5.5368,5.5464,5.5528,5.5519,5.5553,5.5547,5.5556,5.536,5.5325,5.5559,5.5559,5.5558,5.5558,5.5558,5.5558,5.4582,5.4719,5.4732,5.4894,5.4934,5.5046,5.5091,5.515,5.5201,5.5337,5.5418,5.5446,5.5502,5.5602,5.569,5.57,5.5736,5.5775,5.578,5.5595,5.557,5.5547,5.5514,5.5783,5.5783,5.5968,5.5969,5.5971]},{"header":{"parameterUnit":"m.s-1","parameterCategory":1,"la1":30.2991,"la2":30.254,"lo1":-89.0895,"lo2":-89.0444,"dy":0.0017,"dx":0.0017,"nx":28,"ny":28,"refTime":"2025-03-15T21:00:00:Z","depth":0,"parameterNumber":3,"parameterNumberName":"V-component_of_WINDS"},"data":[0,0,0,0,0,0,0,0,0,0,0,0,0,0,0,0,0,0,0,0,0,0,0,0,0,0,0,0,0,0,0,0,0,0,0,0,0,0,0,0,0,0,0,0,0,0,0,0,0,0,0,0,0,0,0,0,0,0,3.1271,3.1272,0,3.1365,3.1366,3.1367,3.1349,3.1347,3.1346,3.1344,3.1437,3.1441,3.1445,0,0,0,0,0,0,0,0,0,0,0,0,0,3.1072,3.1076,3.1271,3.1272,3.1273,3.1365,3.1366,3.1367,3.1349,3.1347,3.1345,3.1343,3.1436,3.1441,3.1446,0,0,0,0,0,0,0,0,0,0,0,0,0,3.1161,3.1077,3.127,3.1275,3.1277,3.1364,3.1366,3.1368,3.135,3.1347,3.1345,3.1342,3.1435,3.144,3.1446,3.1534,0,0,3.1465,3.1468,0,0,0,0,0,0,0,0,3.1156,3.1169,3.1273,3.1275,3.1277,3.1343,3.133,3.1423,3.135,3.1322,3.1344,3.1341,3.1408,3.1416,3.1439,3.1539,3.1543,3.1466,3.1469,3.1472,3.1474,0,0,0,0,0,0,0,3.115,3.1164,3.1308,3.1275,3.1277,3.1271,3.1281,3.1348,3.1378,3.1324,3.1323,3.1335,3.1408,3.1433,3.1441,3.1544,3.1465,3.1471,3.1475,3.1477,3.172,3.1722,0,0,0,0,0,0,3.1143,3.1159,3.1305,3.1311,3.1209,3.1277,3.1288,3.1324,3.1377,3.1383,3.1337,3.1334,3.1424,3.1434,3.1444,3.155,3.1472,3.1477,3.1481,3.1717,3.172,3.1723,0,0,0,0,0,0,3.1139,3.1156,3.1301,3.1235,3.1253,3.1283,3.1324,3.1327,3.1352,3.1387,3.1391,3.1357,3.1422,3.1436,3.1512,3.1553,3.148,3.1486,3.1713,3.1718,3.1722,3.1763,0,0,0,0,0,0,3.1133,3.1155,3.1189,3.1236,3.1257,3.1369,3.1326,3.1331,3.1363,3.136,3.1407,3.1412,3.1421,3.1503,3.1518,3.156,3.149,3.171,3.1715,3.172,3.1759,3.1769,3.1777,0,0,0,0,0,3.1126,3.1197,3.1191,3.1209,3.1301,3.1371,3.1383,3.1393,3.1367,3.1401,3.1423,3.1411,3.1546,3.1511,3.1528,3.1573,3.1707,3.1714,3.172,3.1754,3.1767,3.1777,0,0,0,0,0,0,3.1154,3.1203,3.1197,3.1286,3.1325,3.1368,3.1412,3.1406,3.1452,3.1447,3.1456,3.1467,3.1545,3.1566,3.1526,3.166,3.1623,3.1633,3.1643,3.1655,3.1664,3.1658,3.1496,0,0,0,0,0,3.117,3.1224,3.1264,3.1338,3.1358,3.1382,3.1413,3.1417,3.1457,3.1473,3.1501,3.1539,3.159,3.1624,3.1673,3.1761,3.1771,3.18,3.1809,3.1817,3.1825,3.1873,3.1886,3.1744,3.1744,3.1744,0,0,3.1205,3.1238,3.1272,3.1345,3.1375,3.143,3.1396,3.1455,3.1495,3.1482,3.1556,3.1577,3.1621,3.1703,3.1741,3.1724,3.1866,3.1825,3.183,3.1835,3.188,3.1894,3.1906,3.1748,3.1747,3.1747,0,0,3.1296,3.1327,3.1392,3.1423,3.147,3.1485,3.1501,3.1545,3.1559,3.1634,3.1625,3.1672,3.176,3.1791,3.1818,3.192,3.191,3.1935,3.1984,3.203,3.2041,3.2051,3.2087,3.21,3.1944,3.1944,3.1944,0,3.1333,3.1416,3.1426,3.1486,3.1518,3.1509,3.1574,3.1603,3.1663,3.1685,3.1665,3.1774,3.1803,3.1892,3.1917,3.194,3.1957,3.193,3.2039,3.2049,3.2059,3.2093,3.2106,3.1946,3.1946,3.1946,3.1946,0,3.1459,3.1516,3.1563,3.1622,3.1659,3.1721,3.1739,3.1775,3.1776,3.1793,3.1868,3.1902,3.1957,3.1978,3.1979,3.2068,3.2055,3.2037,3.2,3.2075,3.2107,3.212,3.195,3.1949,3.1949,3.1948,0,0,3.1571,3.1634,3.1651,3.1677,3.1728,3.1772,3.1833,3.1888,3.1918,3.1959,3.201,3.2085,3.2068,3.2099,3.2103,3.2143,3.2221,3.212,3.2121,3.2137,3.2319,3.2333,3.2348,3.2214,3.2217,3.2219,3.2315,0,3.1666,3.1776,3.1786,3.1884,3.1936,3.1928,3.1981,3.2017,3.2034,3.208,3.2098,3.215,3.2124,3.2143,3.2183,3.2203,3.2257,3.2196,3.2261,3.2263,3.2251,3.2365,3.2379,3.2469,3.2328,3.233,3.2332,0,3.1793,3.1839,3.1942,3.1984,3.2007,3.2055,3.2105,3.215,3.219,3.2199,3.2233,3.2232,3.2293,3.2254,3.2338,3.2296,3.2322,3.2336,3.234,3.2346,3.2302,3.2374,3.2498,3.2511,3.2352,3.235,3.2349,0,3.1864,3.1951,3.2024,3.2047,3.2098,3.2132,3.2155,3.2192,3.2224,3.2268,3.2288,3.2338,3.2365,3.2403,3.2415,3.2385,3.2498,3.246,3.2507,3.2506,3.2531,3.253,3.2661,3.2548,3.2548,3.2548,3.2548,0,3.197,3.2033,3.2057,3.2102,3.2172,3.2182,3.2251,3.2271,3.2305,3.2352,3.2347,3.2392,3.2404,3.245,3.2459,3.2527,3.2539,3.2548,3.2549,3.2548,3.2547,3.2566,3.256,3.2551,3.2551,3.255,3.2549,0,3.2061,3.208,3.2159,3.2201,3.2213,3.2263,3.2298,3.234,3.2356,3.2416,3.2431,3.2455,3.2509,3.2524,3.2589,3.2595,3.2674,3.267,3.2662,3.2661,3.2707,3.2703,3.2856,3.2876,3.275,3.2751,3.2752,0,3.2128,3.2177,3.2224,3.2256,3.228,3.2332,3.2365,3.2376,3.241,3.2458,3.2495,3.2548,3.2592,3.2678,3.2701,3.275,3.2747,3.2797,3.2754,3.2751,3.2747,3.2744,3.2749,3.2805,3.2806,3.2807,3.2808,0,3.2244,3.225,3.2298,3.235,3.2389,3.2429,3.2468,3.2494,3.2511,3.2549,3.2605,3.2639,3.2705,3.2757,3.2807,3.2828,3.2821,3.2821,3.2835,3.2834,3.2827,3.2831,3.2684,3.2818,3.2817,3.2816,3.2816,3.2815,3.2325,3.2367,3.2407,3.246,3.2491,3.2527,3.2569,3.259,3.2637,3.2692,3.2696,3.2756,3.2793,3.2859,3.2883,3.2929,3.2914,3.2934,3.2939,3.2943,3.2947,3.282,3.2938,3.2938,3.2938,3.2937,3.2937,0,3.244,3.2465,3.2514,3.2569,3.261,3.26,3.2642,3.2677,3.2731,3.2767,3.281,3.2873,3.2924,3.2951,3.3001,3.3033,3.303,3.3045,3.3043,3.3048,3.2958,3.2941,3.3046,3.3046,3.3046,3.3046,3.3046,3.3046,3.2505,3.2576,3.2587,3.2673,3.2697,3.2757,3.2782,3.2815,3.2843,3.2915,3.2957,3.2975,3.3006,3.3058,3.3104,3.311,3.3129,3.3146,3.315,3.3066,3.3054,3.3044,3.3028,3.315,3.315,3.3237,3.3237,3.3238]}]]